Regional Weather Roundup
Issued by NWS Upton, NY

Current Version | Previous Version | Text Only | Print | Product List | Glossary Off
Versions: 1 2 3 4 5 6 7 8 9 10 11 12 13 14 15 16 17 18 19 20 21 22 23 24 25 26 27 28 29 30 31 32 33 34 35 36 37 38 39 40 41 42 43 44 45 46 47 48 49 50

000
ASUS41 KOKX 310805
RWROKX

REGIONAL WEATHER ROUNDUP
NATIONAL WEATHER SERVICE NEW YORK NY
400 AM EDT SUN AUG 31 2014

NOTE: "FAIR" INDICATES FEW OR NO CLOUDS BELOW 12,000 FEET WITH NO
SIGNIFICANT WEATHER AND/OR OBSTRUCTIONS TO VISIBILITY.

NYZ071-072-176-178-NJZ106-104-310900-
NEW YORK CITY METRO AREA


CITY           SKY/WX    TMP DP  RH WIND       PRES   REMARKS
CENTRAL PARK   CLOUDY    73  63  70 VRB3      30.16S
LAGUARDIA APRT CLOUDY    74  64  71 SW9       30.12F
KENNEDY INTL   CLOUDY    74  69  85 SW8       30.14F
NEWARK/LIBERTY CLOUDY    72  66  81 S7        30.12F
BRNX BOT. GARD   N/A     73  64  73 S2        30.12F
TETERBORO      CLOUDY    73  65  75 S5        30.11F
$$

NYZ177-179-078>081-310900-
LONG ISLAND NEW YORK

CITY           SKY/WX    TMP DP  RH WIND       PRES   REMARKS
FARMINGDALE    CLOUDY    72  68  87 SW7       30.14F
ISLIP          CLOUDY    72  67  84 SW7       30.12F
SHIRLEY        CLOUDY    72  67  84 S7        30.15S
WESTHAMPTON    CLOUDY    72  67  84 SW6       30.16S
MONTAUK POINT    N/A     71  67  87 S6        30.15F
$$

NYZ052-065-067-310900-
HUDSON VALLEY

CITY           SKY/WX    TMP DP  RH WIND       PRES   REMARKS
WHITE PLAINS   MOCLDY    71  65  81 CALM      30.13F
NEWBURGH       NOT AVBL
MONTGOMERY     CLOUDY    69  64  84 S5        30.12S
POUGHKEEPSIE   CLOUDY    73  62  68 CALM      30.11S
ALBANY         MOCLDY    70  63  78 SE9       30.06F
$$

NJZ001-105-106-008-010-013-015-019>022-104-310900-
NEW JERSEY

CITY           SKY/WX    TMP DP  RH WIND       PRES   REMARKS
NEWARK/LIBERTY CLOUDY    72  66  81 S7        30.12F
TETERBORO      CLOUDY    73  65  75 S5        30.11F
CALDWELL       CLOUDY    71  62  73 CALM      30.13F
MORRISTOWN     CLOUDY    70  63  78 CALM      30.13S
SOMERVILLE     MOCLDY    68  63  84 CALM      30.11F
LINDEN         CLOUDY    75  69  79 CALM      30.14F
SUSSEX         CLOUDY    70  65  84 CALM      30.12F
ANDOVER          N/A     69  62  78 CALM      30.13F
TRENTON        MOCLDY    71  63  75 S8        30.12F
MILLVILLE      CLOUDY   N/A N/A N/A VRB3      30.14S
ATLANTIC CITY  CLOUDY    74  68  81 MISG      30.14F
WRIGHTSTOWN    MOCLDY    70  65  83 S8        30.11F
TOMS RIVER     CLOUDY    70  66  88 CALM      30.14F
BELMAR         CLOUDY    72  63  73 S7        30.14S
$$

PAZ047>061-062-071-310900-
EASTERN PENNSYLVANIA

CITY           SKY/WX    TMP DP  RH WIND       PRES   REMARKS
PHILADELPHIA   CLOUDY    72  66  81 S5        30.13F
ALLENTOWN      CLOUDY    73  65  75 S7        30.12F
SCRANTON       CLOUDY    72  65  78 SW7       30.10F
$$

CTZ002-004>006-009-010-012-RIZ004-006-007-MAZ004-011-015-310900-
SOUTHERN NEW ENGLAND
 IN CT

CITY           SKY/WX    TMP DP  RH WIND       PRES   REMARKS
BRADLEY INTL   CLOUDY    72  65  78 S9        30.10F
HARTFORD       CLOUDY    72  65  78 S7        30.11F
DANBURY        CLOUDY    71  64  78 S7        30.14F
WTRBRY/OXFORD  CLOUDY    70  64  83 SW5       30.15F
BRIDGEPORT     CLOUDY    74  68  81 SW10      30.13F
MERIDEN        CLOUDY    72  66  81 S7        30.12F
NEW HAVEN      CLOUDY    74  68  81 SW9       30.13F
CHESTER        CLOUDY    70  66  88 S6        30.15F
GROTON         CLOUDY    70  67  90 SW9       30.13F
WILLIMANTIC    CLOUDY    70  65  84 VRB5      30.13F

 IN RI

CITY           SKY/WX    TMP DP  RH WIND       PRES   REMARKS
PROVIDENCE     CLOUDY    69  64  84 S7        30.14S
BLOCK ISLAND   CLOUDY    70  63  78 S12       30.15S
WESTERLY       CLOUDY    71  66  84 SW10      30.14F

 IN MA

CITY           SKY/WX    TMP DP  RH WIND       PRES   REMARKS
BOSTON         CLOUDY    69  64  84 SW10      30.10F
WORCESTER      CLOUDY    67  63  87 SW16      30.12F
WESTFIELD      CLOUDY    71  65  81 S8        30.09F
PROVINCETOWN   CLOUDY    68  63  83 SW12      30.13F
NANTUCKET      CLOUDY    67  65  93 S7        30.16F
$$

ANZ330-335-338-340-345-350-353-355-310900-
COASTAL MARINE OBSERVATIONS


STATION/POSITION TIME  SKY/WX   TEMP    WIND        PRES    VSBY  WAVE
                                AIR SEA DIR/SP/G                  HT/PER
                 (UTC)          (F)     (DEG/KT/KT) (MB)    (MI)  (FT/S)
NY HARB ENTRANCE NOT AVBL
4S FIRE IS       NOT AVBL
23SW MTP         0800                                 N/A           2/ 8
HUDSON CANYON    0800            72 73  210/  8/  8 1021.4          2/ 8
EXECUTION ROCKS  0800            74 73  220/ 12/ 14   N/A
WESTERN LI SOUND 0800            74     210/  6/  8   N/A           1
CENTRAL LI SOUND 0700            72 72  220/ 12/ 14   N/A           2/ 3
EASTERN LI SOUND 0700            71 69  210/ 10/ 12   N/A
ROBBINS REEF     0800            73     230/  3/  4   N/A
$$


>>>>>>>>>>>>>>>>>>>>>>>>>>>> KEY <<<<<<<<<<<<<<<<<<<<<<<<<<<
>                                                          <
>     SKY/WX - SKY CONDITION/PRESENT WEATHER               <
>     TMP    - TEMPERATURE IN FAHRENHEIT                   <
>     DP     - DEWPOINT IN FAHRENHEIT                      <
>     RH     - RELATIVE HUMIDITY IN PERCENT                <
>     WIND   - DIRECTION AND SPEED IN MPH                  <
>     PRES   - MEAN SEA LEVEL PRESSURE IN INCHES OF HG     <
>     WCI    - WIND CHILL INDEX                            <
>     VSB    - VISIBILITY IN MILES                         <
>     HX     - HEAT INDEX                                  <
>     TC     - TEMPERATURE IN CELSIUS                      <
>     VRB    - VARIABLE WIND DIRECTION                     <
>                                                          <
>>>>>>>>>>>>>>>>>>>>>>>>>>>> KEY <<<<<<<<<<<<<<<<<<<<<<<<<<<




USA.gov is the U.S. government's official web portal to all federal, state and local government web resources and services.